Location: Escondida
(34.1015°N, 106.8964°W)
Time: 13:14:00
(UTC+00:00)

ISS - Pass Details

Date: 14 February 2026
Orbit: 415 x 426 km, 51.6° (Epoch: 13 March)

Event Time Altitude Azimuth Distance (km) Brightness Sun altitude
Exits shadow 13:02:47 17° 289° (WNW) 1,134 -2.2 -11.1°
Maximum altitude 13:04:16 23° 325° (NW) 946 -2.3 -10.8°
Drops below altitude 10° 13:06:59 10° 20° (NNE) 1,490 -0.8 -10.2°
Sets 13:09:23 0° 36° (NE) 2,354 0.4 -9.7°
